Location: ?ejkovice
(49.0137°N, 14.3821°E)
Time: 21:48:33
(UTC+00:00)

Cosmos 2082 Rocket - Pass Details

Date: 23 May 2024
Orbit: 832 x 853 km, 71.0° (Epoch: 22 June)

Event Time Altitude Azimuth Distance (km) Brightness Sun altitude
Exits shadow 00:06:50 33° 206° (SSW) 1,395 2.8 -18.7°
Maximum altitude 00:09:32 89° 122° (ESE) 861 2.2 -18.6°
Drops below altitude 10° 00:15:17 10° 29° (NNE) 2,492 5.9 -18.3°
Sets 00:17:44 0° 29° (NNE) 3,430 7.0 -18.2°
